Enid, OK

10:42 PM CDT on May 22, 2017 (GMT -0500)
Enid Woodring Municipal

Weather History for KWDG - November, 2011

Change the Weather History Date:

Monday, November 14, 2011

  Actual Average Record
Temperature  
Mean Temperature 53 °F -  
Max Temperature 62 °F 57 °F 71 °F (2001)
Min Temperature 44 °F 40 °F 23 °F (2014)
Degree Days  
Heating Degree Days 12    
Growing Degree Days 3 (Base 50)    
Moisture  
Dew Point 43 °F    
Average Humidity 63    
Maximum Humidity 87    
Minimum Humidity 37    
Precipitation  
Precipitation 0.00 in - - ()
Sea Level Pressure  
Sea Level Pressure 29.70 in    
Wind  
Wind Speed 4 mph (West)    
Max Wind Speed 14 mph    
Max Gust Speed 18 mph    
Visibility 10 miles    
Events      
Averages and records for this station are not official NWS values.
T = Trace of Precipitation, MM = Missing Value Source: NWS Daily Summary

Daily Weather History Graph

Daily Weather History Graph

Search for Another Location

Airport or City:

Trip Planner

Search our weather history database for the weather conditions in past years. The results will help you decide how hot, cold, wet, or windy it might be!

Date:

Astronomy

Nov. 14, 2011 Rise Set
Actual Time 7:07 AM CST 5:23 PM CST
Civil Twilight 6:39 AM CST 5:50 PM CST
Nautical Twilight 6:08 AM CST 6:21 PM CST
Astronomical Twilight 5:38 AM CST 6:52 PM CST
Moon 8:33 PM CST (11/14) 10:24 AM CST (11/14)
Length of Visible Light 11h 11m
Length of Day
10h 16m
Waning Gibbous, 86% of the Moon is Illuminated
Nov 14
Waning Gibbous
Nov 18
Last Quarter
Nov 25
New
Dec 2
First Quarter
Dec 10
Full

Hourly Weather History & Observations

Time (CST) Temp. Dew Point Humidity Pressure Visibility Wind Dir Wind Speed Gust Speed Precip Events Conditions
12:15 AM 62.6 °F 44.6 °F 52% 29.58 in 10.0 mi SW 13.8 mph 18.4 mph N/A   Clear
12:35 AM 62.6 °F 44.6 °F 52% 29.57 in 10.0 mi Calm Calm - N/A   Clear
12:55 AM 62.6 °F 44.6 °F 52% 29.58 in 10.0 mi Calm Calm - N/A   Clear
1:15 AM 60.8 °F 44.6 °F 55% 29.57 in 10.0 mi Calm Calm - N/A   Clear
1:35 AM 62.6 °F 44.6 °F 52% 29.58 in 10.0 mi Calm Calm - N/A   Clear
1:55 AM 62.6 °F 44.6 °F 52% 29.58 in 10.0 mi SW 11.5 mph - N/A   Clear
2:15 AM 62.6 °F 44.6 °F 52% 29.58 in 10.0 mi SW 13.8 mph 18.4 mph N/A   Clear
2:35 AM 62.6 °F 44.6 °F 52% 29.59 in 10.0 mi Calm Calm - N/A   Clear
2:55 AM 60.8 °F 44.6 °F 55% 29.60 in 10.0 mi Calm Calm - N/A   Clear
3:35 AM 60.8 °F 46.4 °F 59% 29.60 in 10.0 mi Calm Calm - N/A   Clear
3:55 AM 60.8 °F 46.4 °F 59% 29.60 in 10.0 mi Calm Calm - N/A   Clear
4:15 AM 60.8 °F 46.4 °F 59% 29.61 in 10.0 mi SW 5.8 mph - N/A   Clear
4:35 AM 60.8 °F 46.4 °F 59% 29.62 in 10.0 mi Calm Calm - N/A   Clear
4:55 AM 60.8 °F 44.6 °F 55% 29.63 in 10.0 mi Calm Calm - N/A   Clear
6:50 AM 62.6 °F 46.4 °F 55% 29.68 in 10.0 mi West 11.5 mph - N/A   Overcast
7:55 AM 55.4 °F 39.2 °F 54% 29.77 in 10.0 mi NNW 4.6 mph - N/A   Overcast
8:50 AM 53.6 °F 41.0 °F 62% 29.79 in 10.0 mi NW 6.9 mph - N/A   Overcast
1:55 PM 62.6 °F 35.6 °F 37% 29.79 in 10.0 mi NE 8.1 mph - N/A   Overcast
2:50 PM 62.6 °F 35.6 °F 37% 29.79 in 10.0 mi ENE 6.9 mph - N/A   Overcast
3:50 PM 60.8 °F 41.0 °F 48% 29.79 in 10.0 mi Calm Calm - N/A   Mostly Cloudy
4:50 PM 57.2 °F 44.6 °F 63% 29.78 in 10.0 mi Calm Calm - N/A   Mostly Cloudy
5:50 PM 55.4 °F 42.8 °F 63% 29.78 in 10.0 mi Calm Calm - N/A   Mostly Cloudy
6:50 PM 55.4 °F 41.0 °F 58% 29.77 in 10.0 mi Calm Calm - N/A   Mostly Cloudy
7:50 PM 51.8 °F 42.8 °F 71% 29.76 in 10.0 mi Calm Calm - N/A   Scattered Clouds
8:15 PM 51.8 °F 42.8 °F 71% 29.76 in 10.0 mi Calm Calm - N/A   Clear
8:35 PM 50.0 °F 42.8 °F 76% 29.77 in 10.0 mi Calm Calm - N/A   Clear
8:55 PM 50.0 °F 42.8 °F 76% 29.77 in 10.0 mi Calm Calm - N/A   Clear
9:15 PM 50.0 °F 42.8 °F 76% 29.78 in 10.0 mi Calm Calm - N/A   Clear
9:35 PM 50.0 °F 42.8 °F 76% 29.78 in 10.0 mi Calm Calm - N/A   Clear
9:55 PM 48.2 °F 41.0 °F 76% 29.78 in 10.0 mi Calm Calm - N/A   Clear
10:15 PM 46.4 °F 41.0 °F 81% 29.77 in 10.0 mi Calm Calm - N/A   Clear
10:35 PM 46.4 °F 41.0 °F 81% 29.77 in 10.0 mi Calm Calm - N/A   Clear
10:55 PM 44.6 °F 41.0 °F 87% 29.76 in 10.0 mi Calm Calm - N/A   Clear
11:15 PM 44.6 °F 41.0 °F 87% 29.76 in 10.0 mi Calm Calm - N/A   Clear
11:35 PM 46.4 °F 42.8 °F 87% 29.75 in 10.0 mi Calm Calm - N/A   Clear
11:55 PM 46.4 °F 42.8 °F 87% 29.75 in 10.0 mi Calm Calm - N/A   Clear